User: anonymous   Login
Location: U-46 Planetarium
(42.0300°N, 88.2740°W)
Time: 22:25:24
(UTC-05:00)
Language:

Cosmos 1515 - Orbit

View from above orbital plane
View from above orbital plane
View from above satellite
View from above satellite

Ground track
Ground track

The orbit data is extracted from the following two-line orbital elements,

1 14551U 83122A   18295.59065455  .00000430  00000-0  19755-4 0  9994
2 14551  82.5013  47.4327 0007978  35.8044  91.5624 15.17653414644502
Epoch (UTC): 22 October 2018 14:10:32
Eccentricity: 0.0007978
inclination: 82.5013°
perigee height: 507 km
apogee height: 518 km
right ascension of ascending node: 47.4327°
argument of perigee: 35.8044°
revolutions per day: 15.17653414
mean anomaly at epoch: 91.5624°
orbit number at epoch: 64450

The dashed part of the orbit path shows where the satellite is in the earth's shadow,  

DLR